Patrick AFB, FL

5:52 AM EST on February 22, 2017 (GMT -0500)
Patrick Air Force Base

Weather History for KCOF - May, 2013

Change the Weather History Date:

Saturday, May 4, 2013

  Actual Average Record
Temperature  
Mean Temperature 74 °F -  
Max Temperature 81 °F 79 °F 87 °F (2002)
Min Temperature 68 °F 67 °F 62 °F (1999)
Cooling Degree Days 9    
Growing Degree Days 24 (Base 50)    
Moisture  
Dew Point 68 °F    
Average Humidity 83    
Maximum Humidity 94    
Minimum Humidity 63    
Precipitation  
Precipitation 0.00 in - - ()
Sea Level Pressure  
Sea Level Pressure 29.74 in    
Wind  
Wind Speed 10 mph (South)    
Max Wind Speed 13 mph    
Max Gust Speed -    
Visibility 10 miles    
Events      
Averages and records for this station are not official NWS values.
T = Trace of Precipitation, MM = Missing Value Source: NWS Daily Summary

Daily Weather History Graph

Daily Weather History Graph

Search for Another Location

Airport or City:

Trip Planner

Search our weather history database for the weather conditions in past years. The results will help you decide how hot, cold, wet, or windy it might be!

Date:

Astronomy

May. 04, 2013 Rise Set
Actual Time 6:39 AM EDT 7:59 PM EDT
Civil Twilight 6:14 AM EDT 8:24 PM EDT
Nautical Twilight 5:44 AM EDT 8:54 PM EDT
Astronomical Twilight 5:13 AM EDT 9:25 PM EDT
Moon 3:10 AM EDT (5/4) 3:19 PM EDT (5/4)
Length of Visible Light 14h 09m
Length of Day
13h 19m
Waning Crescent, 27% of the Moon is Illuminated
May 4
Waning Crescent
May 9
New
May 18
First Quarter
May 25
Full
May 31
Last Quarter

Hourly Weather History & Observations

Time (EDT) Temp. Heat Index Dew Point Humidity Pressure Visibility Wind Dir Wind Speed Gust Speed Precip Events Conditions
12:13 AM 69.8 °F - 68.0 °F 94% 29.71 in 10.0 mi SSE 11.5 mph - N/A   Overcast
12:18 AM 69.8 °F - 68.0 °F 94% 29.72 in 10.0 mi SSE 10.4 mph - N/A   Overcast
12:58 AM 71.1 °F - 67.1 °F 87% 29.73 in 10.0 mi SSE 11.5 mph - N/A   Overcast
1:18 AM 69.8 °F - 66.2 °F 88% 29.72 in 10.0 mi SSE 9.2 mph - N/A   Mostly Cloudy
1:58 AM 71.6 °F - 66.9 °F 85% 29.73 in 10.0 mi SSE 8.1 mph - N/A   Partly Cloudy
2:43 AM 71.6 °F - 68.0 °F 88% 29.69 in 10.0 mi SSE 10.4 mph - N/A   Mostly Cloudy
2:58 AM 72.0 °F - 67.5 °F 86% 29.70 in 10.0 mi SSE 10.4 mph - N/A   Mostly Cloudy
3:33 AM 71.6 °F - 66.2 °F 83% 29.69 in 10.0 mi South 10.4 mph - N/A   Mostly Cloudy
3:58 AM 70.7 °F - 66.0 °F 85% 29.70 in 10.0 mi SSE 6.9 mph - N/A   Overcast
4:08 AM 69.8 °F - 66.2 °F 88% 29.69 in 10.0 mi South 10.4 mph - N/A   Overcast
4:23 AM 69.8 °F - 66.2 °F 88% 29.69 in 10.0 mi South 11.5 mph - N/A   Overcast
4:53 AM 69.8 °F - 66.2 °F 88% 29.68 in 10.0 mi South 12.7 mph - N/A   Overcast
4:58 AM 70.0 °F - 65.7 °F 86% 29.70 in 10.0 mi South 11.5 mph - N/A   Mostly Cloudy
5:03 AM 69.8 °F - 66.2 °F 88% 29.69 in 10.0 mi South 12.7 mph - N/A   Mostly Cloudy
5:58 AM 69.3 °F - 66.0 °F 89% 29.70 in 10.0 mi SSE 8.1 mph - N/A   Partly Cloudy
6:43 AM 68.0 °F - 66.2 °F 94% 29.72 in 10.0 mi South 8.1 mph - N/A   Mostly Cloudy
6:48 AM 68.0 °F - 66.2 °F 94% 29.72 in 10.0 mi South 8.1 mph - N/A   Mostly Cloudy
6:53 AM 68.0 °F - 66.2 °F 94% 29.72 in 10.0 mi South 8.1 mph - N/A   Scattered Clouds
6:58 AM 68.0 °F - 66.2 °F 94% 29.73 in 10.0 mi SSE 8.1 mph - N/A   Scattered Clouds
7:58 AM 70.0 °F - 66.0 °F 87% 29.75 in 10.0 mi South 5.8 mph - N/A   Mostly Cloudy
8:48 AM 71.6 °F - 66.2 °F 83% 29.73 in 10.0 mi SSW 6.9 mph - N/A   Mostly Cloudy
8:58 AM 71.8 °F - 66.0 °F 82% 29.75 in 10.0 mi SSW 9.2 mph - N/A   Mostly Cloudy
9:58 AM 73.9 °F - 66.6 °F 78% 29.75 in 10.0 mi SSW 6.9 mph - N/A   Mostly Cloudy
10:33 AM 75.2 °F - 66.2 °F 73% 29.74 in 10.0 mi SSW 8.1 mph - N/A   Mostly Cloudy
10:58 AM 74.7 °F - 66.2 °F 75% 29.77 in 10.0 mi WSW 8.1 mph - N/A   Overcast
11:03 AM 75.2 °F - 66.2 °F 73% 29.75 in 10.0 mi WSW 9.2 mph - N/A   Mostly Cloudy
11:58 AM 76.6 °F - 66.4 °F 70% 29.75 in 10.0 mi SW 12.7 mph - N/A   Scattered Clouds
12:58 PM 76.5 °F - 66.4 °F 71% 29.75 in 10.0 mi SSW 10.4 mph - N/A   Mostly Cloudy
1:58 PM 78.1 °F - 65.8 °F 66% 29.73 in 10.0 mi WSW 11.5 mph - N/A   Mostly Cloudy
2:58 PM 78.8 °F - 66.0 °F 65% 29.73 in 10.0 mi West 5.8 mph - N/A   Mostly Cloudy
3:58 PM 80.2 °F 82.5 °F 66.4 °F 63% 29.73 in 10.0 mi West 9.2 mph - N/A   Partly Cloudy
4:58 PM 79.9 °F - 69.4 °F 70% 29.73 in 10.0 mi NE 9.2 mph - N/A   Clear
5:58 PM 78.1 °F - 69.4 °F 75% 29.73 in 10.0 mi ENE 6.9 mph - N/A   Clear
6:58 PM 76.1 °F - 70.0 °F 81% 29.73 in 10.0 mi East 9.2 mph - N/A   Clear
7:58 PM 74.5 °F - 68.9 °F 83% 29.73 in 10.0 mi East 11.5 mph - N/A   Clear
8:58 PM 74.1 °F - 69.8 °F 86% 29.75 in 10.0 mi ESE 9.2 mph - N/A   Clear
9:28 PM 73.4 °F - 69.8 °F 88% 29.75 in 9.0 mi SSE 6.9 mph - N/A   Clear
9:58 PM 73.6 °F - 69.8 °F 88% 29.78 in 9.0 mi SE 6.9 mph - N/A   Clear
10:53 PM 75.2 °F - 69.8 °F 83% 29.79 in 10.0 mi SSE 5.8 mph - N/A   Scattered Clouds
10:58 PM 74.3 °F - 70.5 °F 88% 29.81 in 10.0 mi South 6.9 mph - N/A   Scattered Clouds
11:18 PM 75.2 °F - 71.6 °F 89% 29.80 in 8.0 mi SSE 5.8 mph - N/A   Mostly Cloudy
11:28 PM 75.2 °F - 69.8 °F 83% 29.80 in 10.0 mi SSE 6.9 mph - N/A   Mostly Cloudy
11:38 PM 75.2 °F - 71.6 °F 89% 29.80 in 9.0 mi SSE 5.8 mph - N/A   Mostly Cloudy
11:58 PM 74.7 °F - 70.9 °F 88% 29.81 in 9.0 mi SSE 6.9 mph - N/A   Mostly Cloudy